Location: Oberwangen
(47.4286°N, 8.9679°E)
Time: 14:58:36
(UTC+00:00)

Cosmos 1607 - Pass Details

Date: 17 October 2021
Orbit: 918 x 984 km, 65.0° (Epoch: 03 December)

Event Time Altitude Azimuth Distance (km) Brightness Sun altitude
Rises 17:56:56 0° 321° (NW) 3,662 7.7 -15.0°
Reaches altitude 10° 17:59:32 10° 318° (NW) 2,702 7.0 -15.5°
Maximum altitude 18:05:46 65° 239° (WSW) 1,037 4.3 -16.5°
Drops below altitude 10° 18:11:51 10° 158° (SSE) 2,640 6.0 -17.6°
Enters shadow 18:13:56 - 156° (SSE) 3,407 6.6 -17.9°
